Location: Drignac
(45.1667°N, 2.0333°E)
Time: 21:47:20
(UTC+00:00)

STARLINK-1102 - Pass Details

Date: 29 March 2020
Orbit: 549 x 550 km, 53.0° (Epoch: 27 May)

Event Time Altitude Azimuth Distance (km) Brightness Sun altitude
Rises 20:26:38 0° 302° (WNW) 2,730 8.7 -22.4°
Reaches altitude 10° 20:28:53 10° 305° (NW) 1,834 7.4 -22.8°
Enters shadow 20:32:55 69° 15° (NNE) 595 3.7 -23.4°
